Index of /20260506/WXO-DD/model_caps/3km/12/034
Name Last modified Size Description
Parent Directory -
20260506T12Z_MSC_CAPS_AbsoluteVorticity_IsbL-0250_RLatLon0.03_PT034H.grib2 2026-05-06 18:22 900K
20260506T12Z_MSC_CAPS_AbsoluteVorticity_IsbL-0500_RLatLon0.03_PT034H.grib2 2026-05-06 18:22 1.1M
20260506T12Z_MSC_CAPS_AbsoluteVorticity_IsbL-0700_RLatLon0.03_PT034H.grib2 2026-05-06 18:22 1.0M
20260506T12Z_MSC_CAPS_AbsoluteVorticity_IsbL-0850_RLatLon0.03_PT034H.grib2 2026-05-06 18:22 1.5M
20260506T12Z_MSC_CAPS_AbsoluteVorticity_IsbL-1000_RLatLon0.03_PT034H.grib2 2026-05-06 18:22 1.6M
20260506T12Z_MSC_CAPS_AirDensity_AGL-120m_RLatLon0.03_PT034H.grib2 2026-05-06 18:22 1.4M
20260506T12Z_MSC_CAPS_AirDensity_AGL-40m_RLatLon0.03_PT034H.grib2 2026-05-06 18:22 1.4M
20260506T12Z_MSC_CAPS_AirDensity_AGL-80m_RLatLon0.03_PT034H.grib2 2026-05-06 18:22 1.4M
20260506T12Z_MSC_CAPS_AirTemp_AGL-120m_RLatLon0.03_PT034H.grib2 2026-05-06 18:22 1.4M
20260506T12Z_MSC_CAPS_AirTemp_AGL-2m_RLatLon0.03_PT034H.grib2 2026-05-06 18:22 1.7M
20260506T12Z_MSC_CAPS_AirTemp_AGL-40m_RLatLon0.03_PT034H.grib2 2026-05-06 18:22 1.5M
20260506T12Z_MSC_CAPS_AirTemp_AGL-80m_RLatLon0.03_PT034H.grib2 2026-05-06 18:22 1.4M
20260506T12Z_MSC_CAPS_AirTemp_IsbL-0050_RLatLon0.03_PT034H.grib2 2026-05-06 18:22 684K
20260506T12Z_MSC_CAPS_AirTemp_IsbL-0100_RLatLon0.03_PT034H.grib2 2026-05-06 18:22 945K
20260506T12Z_MSC_CAPS_AirTemp_IsbL-0150_RLatLon0.03_PT034H.grib2 2026-05-06 18:22 751K
20260506T12Z_MSC_CAPS_AirTemp_IsbL-0175_RLatLon0.03_PT034H.grib2 2026-05-06 18:22 776K
20260506T12Z_MSC_CAPS_AirTemp_IsbL-0200_RLatLon0.03_PT034H.grib2 2026-05-06 18:22 797K
20260506T12Z_MSC_CAPS_AirTemp_IsbL-0225_RLatLon0.03_PT034H.grib2 2026-05-06 18:22 795K
20260506T12Z_MSC_CAPS_AirTemp_IsbL-0250_RLatLon0.03_PT034H.grib2 2026-05-06 18:22 1.0M
20260506T12Z_MSC_CAPS_AirTemp_IsbL-0275_RLatLon0.03_PT034H.grib2 2026-05-06 18:22 1.0M
20260506T12Z_MSC_CAPS_AirTemp_IsbL-0300_RLatLon0.03_PT034H.grib2 2026-05-06 18:22 1.0M
20260506T12Z_MSC_CAPS_AirTemp_IsbL-0350_RLatLon0.03_PT034H.grib2 2026-05-06 18:22 749K
20260506T12Z_MSC_CAPS_AirTemp_IsbL-0400_RLatLon0.03_PT034H.grib2 2026-05-06 18:22 752K
20260506T12Z_MSC_CAPS_AirTemp_IsbL-0450_RLatLon0.03_PT034H.grib2 2026-05-06 18:22 768K
20260506T12Z_MSC_CAPS_AirTemp_IsbL-0500_RLatLon0.03_PT034H.grib2 2026-05-06 18:22 783K
20260506T12Z_MSC_CAPS_AirTemp_IsbL-0550_RLatLon0.03_PT034H.grib2 2026-05-06 18:22 948K
20260506T12Z_MSC_CAPS_AirTemp_IsbL-0600_RLatLon0.03_PT034H.grib2 2026-05-06 18:22 966K
20260506T12Z_MSC_CAPS_AirTemp_IsbL-0650_RLatLon0.03_PT034H.grib2 2026-05-06 18:22 1.0M
20260506T12Z_MSC_CAPS_AirTemp_IsbL-0700_RLatLon0.03_PT034H.grib2 2026-05-06 18:22 875K
20260506T12Z_MSC_CAPS_AirTemp_IsbL-0750_RLatLon0.03_PT034H.grib2 2026-05-06 18:22 907K
20260506T12Z_MSC_CAPS_AirTemp_IsbL-0800_RLatLon0.03_PT034H.grib2 2026-05-06 18:22 1.1M
20260506T12Z_MSC_CAPS_AirTemp_IsbL-0850_RLatLon0.03_PT034H.grib2 2026-05-06 18:22 1.1M
20260506T12Z_MSC_CAPS_AirTemp_IsbL-0875_RLatLon0.03_PT034H.grib2 2026-05-06 18:22 1.1M
20260506T12Z_MSC_CAPS_AirTemp_IsbL-0900_RLatLon0.03_PT034H.grib2 2026-05-06 18:22 1.0M
20260506T12Z_MSC_CAPS_AirTemp_IsbL-0925_RLatLon0.03_PT034H.grib2 2026-05-06 18:22 1.0M
20260506T12Z_MSC_CAPS_AirTemp_IsbL-0950_RLatLon0.03_PT034H.grib2 2026-05-06 18:22 1.0M
20260506T12Z_MSC_CAPS_AirTemp_IsbL-0970_RLatLon0.03_PT034H.grib2 2026-05-06 18:22 1.0M
20260506T12Z_MSC_CAPS_AirTemp_IsbL-0985_RLatLon0.03_PT034H.grib2 2026-05-06 18:22 1.0M
20260506T12Z_MSC_CAPS_AirTemp_IsbL-1000_RLatLon0.03_PT034H.grib2 2026-05-06 18:22 1.0M
20260506T12Z_MSC_CAPS_AirTemp_IsbL-1015_RLatLon0.03_PT034H.grib2 2026-05-06 18:22 1.1M
20260506T12Z_MSC_CAPS_Albedo_Sfc_RLatLon0.03_PT034H.grib2 2026-05-06 18:22 2.7M
20260506T12Z_MSC_CAPS_CAPE_Sfc_RLatLon0.03_PT034H.grib2 2026-05-06 18:22 268K
20260506T12Z_MSC_CAPS_CloudWater_EAtm_RLatLon0.03_PT034H.grib2 2026-05-06 18:22 1.6M
20260506T12Z_MSC_CAPS_ConvectivePrecip-Accum_Sfc_RLatLon0.03_PT034H.grib2 2026-05-06 18:22 4.6M
20260506T12Z_MSC_CAPS_DewPointDepression_AGL-120m_RLatLon0.03_PT034H.grib2 2026-05-06 18:22 2.2M
20260506T12Z_MSC_CAPS_DewPointDepression_AGL-2m_RLatLon0.03_PT034H.grib2 2026-05-06 18:22 2.2M
20260506T12Z_MSC_CAPS_DewPointDepression_AGL-40m_RLatLon0.03_PT034H.grib2 2026-05-06 18:22 2.2M
20260506T12Z_MSC_CAPS_DewPointDepression_AGL-80m_RLatLon0.03_PT034H.grib2 2026-05-06 18:22 2.2M
20260506T12Z_MSC_CAPS_DewPointDepression_IsbL-0050_RLatLon0.03_PT034H.grib2 2026-05-06 18:22 3.7K
20260506T12Z_MSC_CAPS_DewPointDepression_IsbL-0100_RLatLon0.03_PT034H.grib2 2026-05-06 18:22 49K
20260506T12Z_MSC_CAPS_DewPointDepression_IsbL-0150_RLatLon0.03_PT034H.grib2 2026-05-06 18:22 88K
20260506T12Z_MSC_CAPS_DewPointDepression_IsbL-0175_RLatLon0.03_PT034H.grib2 2026-05-06 18:22 220K
20260506T12Z_MSC_CAPS_DewPointDepression_IsbL-0200_RLatLon0.03_PT034H.grib2 2026-05-06 18:22 400K
20260506T12Z_MSC_CAPS_DewPointDepression_IsbL-0225_RLatLon0.03_PT034H.grib2 2026-05-06 18:22 583K
20260506T12Z_MSC_CAPS_DewPointDepression_IsbL-0250_RLatLon0.03_PT034H.grib2 2026-05-06 18:22 862K
20260506T12Z_MSC_CAPS_DewPointDepression_IsbL-0275_RLatLon0.03_PT034H.grib2 2026-05-06 18:22 1.0M
20260506T12Z_MSC_CAPS_DewPointDepression_IsbL-0300_RLatLon0.03_PT034H.grib2 2026-05-06 18:22 1.1M
20260506T12Z_MSC_CAPS_DewPointDepression_IsbL-0350_RLatLon0.03_PT034H.grib2 2026-05-06 18:22 1.1M
20260506T12Z_MSC_CAPS_DewPointDepression_IsbL-0400_RLatLon0.03_PT034H.grib2 2026-05-06 18:22 1.1M
20260506T12Z_MSC_CAPS_DewPointDepression_IsbL-0450_RLatLon0.03_PT034H.grib2 2026-05-06 18:22 1.2M
20260506T12Z_MSC_CAPS_DewPointDepression_IsbL-0500_RLatLon0.03_PT034H.grib2 2026-05-06 18:22 1.2M
20260506T12Z_MSC_CAPS_DewPointDepression_IsbL-0550_RLatLon0.03_PT034H.grib2 2026-05-06 18:22 1.2M
20260506T12Z_MSC_CAPS_DewPointDepression_IsbL-0600_RLatLon0.03_PT034H.grib2 2026-05-06 18:22 1.3M
20260506T12Z_MSC_CAPS_DewPointDepression_IsbL-0650_RLatLon0.03_PT034H.grib2 2026-05-06 18:22 1.3M
20260506T12Z_MSC_CAPS_DewPointDepression_IsbL-0700_RLatLon0.03_PT034H.grib2 2026-05-06 18:22 1.4M
20260506T12Z_MSC_CAPS_DewPointDepression_IsbL-0750_RLatLon0.03_PT034H.grib2 2026-05-06 18:22 1.4M
20260506T12Z_MSC_CAPS_DewPointDepression_IsbL-0800_RLatLon0.03_PT034H.grib2 2026-05-06 18:22 1.4M
20260506T12Z_MSC_CAPS_DewPointDepression_IsbL-0850_RLatLon0.03_PT034H.grib2 2026-05-06 18:22 1.4M
20260506T12Z_MSC_CAPS_DewPointDepression_IsbL-0875_RLatLon0.03_PT034H.grib2 2026-05-06 18:22 1.4M
20260506T12Z_MSC_CAPS_DewPointDepression_IsbL-0900_RLatLon0.03_PT034H.grib2 2026-05-06 18:22 1.4M
20260506T12Z_MSC_CAPS_DewPointDepression_IsbL-0925_RLatLon0.03_PT034H.grib2 2026-05-06 18:22 1.4M
20260506T12Z_MSC_CAPS_DewPointDepression_IsbL-0950_RLatLon0.03_PT034H.grib2 2026-05-06 18:22 1.4M
20260506T12Z_MSC_CAPS_DewPointDepression_IsbL-0970_RLatLon0.03_PT034H.grib2 2026-05-06 18:22 1.4M
20260506T12Z_MSC_CAPS_DewPointDepression_IsbL-0985_RLatLon0.03_PT034H.grib2 2026-05-06 18:22 1.4M
20260506T12Z_MSC_CAPS_DewPointDepression_IsbL-1000_RLatLon0.03_PT034H.grib2 2026-05-06 18:22 1.4M
20260506T12Z_MSC_CAPS_DewPointDepression_IsbL-1015_RLatLon0.03_PT034H.grib2 2026-05-06 18:22 1.4M
20260506T12Z_MSC_CAPS_DewPoint_AGL-120m_RLatLon0.03_PT034H.grib2 2026-05-06 18:22 3.8M
20260506T12Z_MSC_CAPS_DewPoint_AGL-2m_RLatLon0.03_PT034H.grib2 2026-05-06 18:22 2.2M
20260506T12Z_MSC_CAPS_DewPoint_AGL-40m_RLatLon0.03_PT034H.grib2 2026-05-06 18:22 3.8M
20260506T12Z_MSC_CAPS_DewPoint_AGL-80m_RLatLon0.03_PT034H.grib2 2026-05-06 18:22 3.8M
20260506T12Z_MSC_CAPS_DownwardLongwaveRadiationFlux-Accum_Sfc_RLatLon0.03_PT034H.grib2 2026-05-06 18:22 2.6M
20260506T12Z_MSC_CAPS_DownwardShortwaveRadiationFlux-Accum_NTAtm_RLatLon0.03_PT034H.grib2 2026-05-06 18:22 391K
20260506T12Z_MSC_CAPS_DownwardShortwaveRadiationFlux-Accum_Sfc_RLatLon0.03_PT034H.grib2 2026-05-06 18:22 3.0M
20260506T12Z_MSC_CAPS_FreezingRain-Accum_Sfc_RLatLon0.03_PT034H.grib2 2026-05-06 18:22 962K
20260506T12Z_MSC_CAPS_GeopotentialHeight_IsbL-0050_RLatLon0.03_PT034H.grib2 2026-05-06 18:22 824K
20260506T12Z_MSC_CAPS_GeopotentialHeight_IsbL-0100_RLatLon0.03_PT034H.grib2 2026-05-06 18:22 741K
20260506T12Z_MSC_CAPS_GeopotentialHeight_IsbL-0150_RLatLon0.03_PT034H.grib2 2026-05-06 18:22 596K
20260506T12Z_MSC_CAPS_GeopotentialHeight_IsbL-0175_RLatLon0.03_PT034H.grib2 2026-05-06 18:22 711K
20260506T12Z_MSC_CAPS_GeopotentialHeight_IsbL-0200_RLatLon0.03_PT034H.grib2 2026-05-06 18:22 736K
20260506T12Z_MSC_CAPS_GeopotentialHeight_IsbL-0225_RLatLon0.03_PT034H.grib2 2026-05-06 18:22 750K
20260506T12Z_MSC_CAPS_GeopotentialHeight_IsbL-0250_RLatLon0.03_PT034H.grib2 2026-05-06 18:22 758K
20260506T12Z_MSC_CAPS_GeopotentialHeight_IsbL-0275_RLatLon0.03_PT034H.grib2 2026-05-06 18:22 769K
20260506T12Z_MSC_CAPS_GeopotentialHeight_IsbL-0300_RLatLon0.03_PT034H.grib2 2026-05-06 18:22 771K
20260506T12Z_MSC_CAPS_GeopotentialHeight_IsbL-0350_RLatLon0.03_PT034H.grib2 2026-05-06 18:22 774K
20260506T12Z_MSC_CAPS_GeopotentialHeight_IsbL-0400_RLatLon0.03_PT034H.grib2 2026-05-06 18:22 769K
20260506T12Z_MSC_CAPS_GeopotentialHeight_IsbL-0450_RLatLon0.03_PT034H.grib2 2026-05-06 18:22 763K
20260506T12Z_MSC_CAPS_GeopotentialHeight_IsbL-0500_RLatLon0.03_PT034H.grib2 2026-05-06 18:22 756K
20260506T12Z_MSC_CAPS_GeopotentialHeight_IsbL-0550_RLatLon0.03_PT034H.grib2 2026-05-06 18:22 635K
20260506T12Z_MSC_CAPS_GeopotentialHeight_IsbL-0600_RLatLon0.03_PT034H.grib2 2026-05-06 18:22 629K
20260506T12Z_MSC_CAPS_GeopotentialHeight_IsbL-0650_RLatLon0.03_PT034H.grib2 2026-05-06 18:22 624K
20260506T12Z_MSC_CAPS_GeopotentialHeight_IsbL-0700_RLatLon0.03_PT034H.grib2 2026-05-06 18:22 621K
20260506T12Z_MSC_CAPS_GeopotentialHeight_IsbL-0750_RLatLon0.03_PT034H.grib2 2026-05-06 18:22 622K
20260506T12Z_MSC_CAPS_GeopotentialHeight_IsbL-0800_RLatLon0.03_PT034H.grib2 2026-05-06 18:22 621K
20260506T12Z_MSC_CAPS_GeopotentialHeight_IsbL-0850_RLatLon0.03_PT034H.grib2 2026-05-06 18:22 810K
20260506T12Z_MSC_CAPS_GeopotentialHeight_IsbL-0875_RLatLon0.03_PT034H.grib2 2026-05-06 18:22 805K
20260506T12Z_MSC_CAPS_GeopotentialHeight_IsbL-0900_RLatLon0.03_PT034H.grib2 2026-05-06 18:22 826K
20260506T12Z_MSC_CAPS_GeopotentialHeight_IsbL-0925_RLatLon0.03_PT034H.grib2 2026-05-06 18:22 834K
20260506T12Z_MSC_CAPS_GeopotentialHeight_IsbL-0950_RLatLon0.03_PT034H.grib2 2026-05-06 18:22 842K
20260506T12Z_MSC_CAPS_GeopotentialHeight_IsbL-0970_RLatLon0.03_PT034H.grib2 2026-05-06 18:22 852K
20260506T12Z_MSC_CAPS_GeopotentialHeight_IsbL-0985_RLatLon0.03_PT034H.grib2 2026-05-06 18:22 862K
20260506T12Z_MSC_CAPS_GeopotentialHeight_IsbL-1000_RLatLon0.03_PT034H.grib2 2026-05-06 18:22 872K
20260506T12Z_MSC_CAPS_GeopotentialHeight_IsbL-1015_RLatLon0.03_PT034H.grib2 2026-05-06 18:22 883K
20260506T12Z_MSC_CAPS_GeopotentialHeight_Sfc_RLatLon0.03_PT034H.grib2 2026-05-06 18:22 1.0M
20260506T12Z_MSC_CAPS_IcePellets-Accum_Sfc_RLatLon0.03_PT034H.grib2 2026-05-06 18:22 31K
20260506T12Z_MSC_CAPS_LatentHeatNetFlux_Sfc_RLatLon0.03_PT034H.grib2 2026-05-06 18:22 1.7M
20260506T12Z_MSC_CAPS_LiftedIndex-MU-VT_IsbL-0500_RLatLon0.03_PT034H.grib2 2026-05-06 18:22 3.3M
20260506T12Z_MSC_CAPS_MixedLayerThickness_Sfc_RLatLon0.03_PT034H.nc 2026-05-06 18:13 17M
20260506T12Z_MSC_CAPS_NetLongwaveRadiationFlux-Accum_Sfc_RLatLon0.03_PT034H.grib2 2026-05-06 18:22 2.9M
20260506T12Z_MSC_CAPS_NetShortwaveRadiationFlux-Accum_Sfc_RLatLon0.03_PT034H.grib2 2026-05-06 18:22 2.9M
20260506T12Z_MSC_CAPS_PlanetaryBoundaryLayerHeight_Sfc_RLatLon0.03_PT034H.grib2 2026-05-06 18:22 3.1M
20260506T12Z_MSC_CAPS_Precip-Accum_Sfc_RLatLon0.03_PT034H.grib2 2026-05-06 18:22 5.4M
20260506T12Z_MSC_CAPS_PrecipRate_Sfc_RLatLon0.03_PT034H.grib2 2026-05-06 18:22 459K
20260506T12Z_MSC_CAPS_PrecipType-Instant_Sfc_RLatLon0.03_PT034H.grib2 2026-05-06 18:22 2.1M
20260506T12Z_MSC_CAPS_Pressure_MSL_RLatLon0.03_PT034H.grib2 2026-05-06 18:22 760K
20260506T12Z_MSC_CAPS_Pressure_Sfc_RLatLon0.03_PT034H.grib2 2026-05-06 18:22 1.2M
20260506T12Z_MSC_CAPS_RadiativeTemp_Sfc_RLatLon0.03_PT034H.grib2 2026-05-06 18:22 2.1M
20260506T12Z_MSC_CAPS_Rain-Accum_Sfc_RLatLon0.03_PT034H.grib2 2026-05-06 18:22 2.6M
20260506T12Z_MSC_CAPS_RelativeHumidity_AGL-120m_RLatLon0.03_PT034H.grib2 2026-05-06 18:22 2.9M
20260506T12Z_MSC_CAPS_RelativeHumidity_AGL-2m_RLatLon0.03_PT034H.grib2 2026-05-06 18:22 3.0M
20260506T12Z_MSC_CAPS_RelativeHumidity_AGL-40m_RLatLon0.03_PT034H.grib2 2026-05-06 18:22 2.9M
20260506T12Z_MSC_CAPS_RelativeHumidity_AGL-80m_RLatLon0.03_PT034H.grib2 2026-05-06 18:22 2.9M
20260506T12Z_MSC_CAPS_RelativeHumidity_IsbL-0050_RLatLon0.03_PT034H.grib2 2026-05-06 18:22 718K
20260506T12Z_MSC_CAPS_RelativeHumidity_IsbL-0100_RLatLon0.03_PT034H.grib2 2026-05-06 18:22 1.1M
20260506T12Z_MSC_CAPS_RelativeHumidity_IsbL-0150_RLatLon0.03_PT034H.grib2 2026-05-06 18:22 515K
20260506T12Z_MSC_CAPS_RelativeHumidity_IsbL-0175_RLatLon0.03_PT034H.grib2 2026-05-06 18:22 473K
20260506T12Z_MSC_CAPS_RelativeHumidity_IsbL-0200_RLatLon0.03_PT034H.grib2 2026-05-06 18:22 676K
20260506T12Z_MSC_CAPS_RelativeHumidity_IsbL-0225_RLatLon0.03_PT034H.grib2 2026-05-06 18:22 913K
20260506T12Z_MSC_CAPS_RelativeHumidity_IsbL-0250_RLatLon0.03_PT034H.grib2 2026-05-06 18:22 1.1M
20260506T12Z_MSC_CAPS_RelativeHumidity_IsbL-0275_RLatLon0.03_PT034H.grib2 2026-05-06 18:22 1.4M
20260506T12Z_MSC_CAPS_RelativeHumidity_IsbL-0300_RLatLon0.03_PT034H.grib2 2026-05-06 18:22 1.7M
20260506T12Z_MSC_CAPS_RelativeHumidity_IsbL-0350_RLatLon0.03_PT034H.grib2 2026-05-06 18:22 2.0M
20260506T12Z_MSC_CAPS_RelativeHumidity_IsbL-0400_RLatLon0.03_PT034H.grib2 2026-05-06 18:22 2.1M
20260506T12Z_MSC_CAPS_RelativeHumidity_IsbL-0450_RLatLon0.03_PT034H.grib2 2026-05-06 18:22 2.0M
20260506T12Z_MSC_CAPS_RelativeHumidity_IsbL-0500_RLatLon0.03_PT034H.grib2 2026-05-06 18:22 2.2M
20260506T12Z_MSC_CAPS_RelativeHumidity_IsbL-0550_RLatLon0.03_PT034H.grib2 2026-05-06 18:22 2.2M
20260506T12Z_MSC_CAPS_RelativeHumidity_IsbL-0600_RLatLon0.03_PT034H.grib2 2026-05-06 18:22 2.4M
20260506T12Z_MSC_CAPS_RelativeHumidity_IsbL-0650_RLatLon0.03_PT034H.grib2 2026-05-06 18:22 2.3M
20260506T12Z_MSC_CAPS_RelativeHumidity_IsbL-0700_RLatLon0.03_PT034H.grib2 2026-05-06 18:22 2.3M
20260506T12Z_MSC_CAPS_RelativeHumidity_IsbL-0750_RLatLon0.03_PT034H.grib2 2026-05-06 18:22 2.4M
20260506T12Z_MSC_CAPS_RelativeHumidity_IsbL-0800_RLatLon0.03_PT034H.grib2 2026-05-06 18:22 2.6M
20260506T12Z_MSC_CAPS_RelativeHumidity_IsbL-0850_RLatLon0.03_PT034H.grib2 2026-05-06 18:22 2.7M
20260506T12Z_MSC_CAPS_RelativeHumidity_IsbL-0875_RLatLon0.03_PT034H.grib2 2026-05-06 18:22 2.7M
20260506T12Z_MSC_CAPS_RelativeHumidity_IsbL-0900_RLatLon0.03_PT034H.grib2 2026-05-06 18:22 2.7M
20260506T12Z_MSC_CAPS_RelativeHumidity_IsbL-0925_RLatLon0.03_PT034H.grib2 2026-05-06 18:22 2.8M
20260506T12Z_MSC_CAPS_RelativeHumidity_IsbL-0950_RLatLon0.03_PT034H.grib2 2026-05-06 18:22 2.8M
20260506T12Z_MSC_CAPS_RelativeHumidity_IsbL-0970_RLatLon0.03_PT034H.grib2 2026-05-06 18:22 2.9M
20260506T12Z_MSC_CAPS_RelativeHumidity_IsbL-0985_RLatLon0.03_PT034H.grib2 2026-05-06 18:22 2.9M
20260506T12Z_MSC_CAPS_RelativeHumidity_IsbL-1000_RLatLon0.03_PT034H.grib2 2026-05-06 18:22 2.9M
20260506T12Z_MSC_CAPS_RelativeHumidity_IsbL-1015_RLatLon0.03_PT034H.grib2 2026-05-06 18:22 3.0M
20260506T12Z_MSC_CAPS_Runoff-Accum_Sfc_RLatLon0.03_PT034H.grib2 2026-05-06 18:22 303K
20260506T12Z_MSC_CAPS_SeaIceAreaFraction_Sfc_RLatLon0.03_PT034H.nc 2026-05-06 18:13 15M
20260506T12Z_MSC_CAPS_SeaIceCompressiveStrength_Sfc_RLatLon0.03_PT034H.nc 2026-05-06 18:13 15M
20260506T12Z_MSC_CAPS_SeaIceDivergence_Sfc_RLatLon0.03_PT034H.nc 2026-05-06 18:13 15M
20260506T12Z_MSC_CAPS_SeaIceInternalPressure_Sfc_RLatLon0.03_PT034H.nc 2026-05-06 18:13 15M
20260506T12Z_MSC_CAPS_SeaIceShear_Sfc_RLatLon0.03_PT034H.nc 2026-05-06 18:13 15M
20260506T12Z_MSC_CAPS_SeaIceSnowTemp_Sfc_RLatLon0.03_PT034H.nc 2026-05-06 18:13 14M
20260506T12Z_MSC_CAPS_SeaIceSnowVolume_Sfc_RLatLon0.03_PT034H.nc 2026-05-06 18:13 15M
20260506T12Z_MSC_CAPS_SeaIceVelocityX_Sfc_RLatLon0.03_PT034H.nc 2026-05-06 18:13 15M
20260506T12Z_MSC_CAPS_SeaIceVelocityY_Sfc_RLatLon0.03_PT034H.nc 2026-05-06 18:13 15M
20260506T12Z_MSC_CAPS_SeaIceVolume_Sfc_RLatLon0.03_PT034H.nc 2026-05-06 18:13 15M
20260506T12Z_MSC_CAPS_SeaSurfaceHeight_Sfc_RLatLon0.03_PT034H.nc 2026-05-06 18:13 16M
20260506T12Z_MSC_CAPS_SeaWaterSalinity_DBS-0.5m_RLatLon0.03_PT034H.nc 2026-05-06 18:13 16M
20260506T12Z_MSC_CAPS_SeaWaterSalinity_DBS-all_RLatLon0.03_PT034H.nc 2026-05-06 18:13 107M
20260506T12Z_MSC_CAPS_SeaWaterTemp_DBS-0.5m_RLatLon0.03_PT034H.nc 2026-05-06 18:13 15M
20260506T12Z_MSC_CAPS_SeaWaterTemp_DBS-all_RLatLon0.03_PT034H.nc 2026-05-06 18:13 88M
20260506T12Z_MSC_CAPS_SeaWaterVelocityX_DBS-0.5m_RLatLon0.03_PT034H.nc 2026-05-06 18:13 17M
20260506T12Z_MSC_CAPS_SeaWaterVelocityX_DBS-all_RLatLon0.03_PT034H.nc 2026-05-06 18:13 204M
20260506T12Z_MSC_CAPS_SeaWaterVelocityY_DBS-0.5m_RLatLon0.03_PT034H.nc 2026-05-06 18:13 18M
20260506T12Z_MSC_CAPS_SeaWaterVelocityY_DBS-all_RLatLon0.03_PT034H.nc 2026-05-06 18:13 218M
20260506T12Z_MSC_CAPS_SensibleHeatNetFlux_Sfc_RLatLon0.03_PT034H.grib2 2026-05-06 18:22 2.2M
20260506T12Z_MSC_CAPS_ShowalterIndex_IsbL-0500_RLatLon0.03_PT034H.grib2 2026-05-06 18:22 4.3M
20260506T12Z_MSC_CAPS_Snow-Accum_Sfc_RLatLon0.03_PT034H.grib2 2026-05-06 18:22 4.1M
20260506T12Z_MSC_CAPS_SnowDensity_Sfc_RLatLon0.03_PT034H.grib2 2026-05-06 18:22 1.3M
20260506T12Z_MSC_CAPS_SnowDepthWaterEquivalent_Sfc_RLatLon0.03_PT034H.grib2 2026-05-06 18:22 646K
20260506T12Z_MSC_CAPS_SnowDepth_Sfc_RLatLon0.03_PT034H.grib2 2026-05-06 18:22 1.1M
20260506T12Z_MSC_CAPS_SoilTemp_DBS-0to10cm_RLatLon0.03_PT034H.grib2 2026-05-06 18:22 1.6M
20260506T12Z_MSC_CAPS_SoilTemp_Sfc_RLatLon0.03_PT034H.grib2 2026-05-06 18:22 1.9M
20260506T12Z_MSC_CAPS_SoilVolumetricIceContent_Sfc_RLatLon0.03_PT034H.grib2 2026-05-06 18:22 1.3M
20260506T12Z_MSC_CAPS_SoilVolumetricWaterContent_DBS-0to10cm_RLatLon0.03_PT034H.grib2 2026-05-06 18:22 1.3M
20260506T12Z_MSC_CAPS_SoilVolumetricWaterContent_DBS-0to1cm_RLatLon0.03_PT034H.grib2 2026-05-06 18:22 1.8M
20260506T12Z_MSC_CAPS_SpecificHumidity_AGL-120m_RLatLon0.03_PT034H.grib2 2026-05-06 18:22 1.5M
20260506T12Z_MSC_CAPS_SpecificHumidity_AGL-2m_RLatLon0.03_PT034H.grib2 2026-05-06 18:22 1.8M
20260506T12Z_MSC_CAPS_SpecificHumidity_AGL-40m_RLatLon0.03_PT034H.grib2 2026-05-06 18:22 1.6M
20260506T12Z_MSC_CAPS_SpecificHumidity_AGL-80m_RLatLon0.03_PT034H.grib2 2026-05-06 18:22 1.6M
20260506T12Z_MSC_CAPS_SpecificHumidity_IsbL-0050_RLatLon0.03_PT034H.grib2 2026-05-06 18:22 922K
20260506T12Z_MSC_CAPS_SpecificHumidity_IsbL-0100_RLatLon0.03_PT034H.grib2 2026-05-06 18:22 972K
20260506T12Z_MSC_CAPS_SpecificHumidity_IsbL-0150_RLatLon0.03_PT034H.grib2 2026-05-06 18:22 876K
20260506T12Z_MSC_CAPS_SpecificHumidity_IsbL-0175_RLatLon0.03_PT034H.grib2 2026-05-06 18:22 1.0M
20260506T12Z_MSC_CAPS_SpecificHumidity_IsbL-0200_RLatLon0.03_PT034H.grib2 2026-05-06 18:22 904K
20260506T12Z_MSC_CAPS_SpecificHumidity_IsbL-0225_RLatLon0.03_PT034H.grib2 2026-05-06 18:22 866K
20260506T12Z_MSC_CAPS_SpecificHumidity_IsbL-0250_RLatLon0.03_PT034H.grib2 2026-05-06 18:22 1.1M
20260506T12Z_MSC_CAPS_SpecificHumidity_IsbL-0275_RLatLon0.03_PT034H.grib2 2026-05-06 18:22 1.1M
20260506T12Z_MSC_CAPS_SpecificHumidity_IsbL-0300_RLatLon0.03_PT034H.grib2 2026-05-06 18:22 1.1M
20260506T12Z_MSC_CAPS_SpecificHumidity_IsbL-0350_RLatLon0.03_PT034H.grib2 2026-05-06 18:22 1.0M
20260506T12Z_MSC_CAPS_SpecificHumidity_IsbL-0400_RLatLon0.03_PT034H.grib2 2026-05-06 18:22 1.0M
20260506T12Z_MSC_CAPS_SpecificHumidity_IsbL-0450_RLatLon0.03_PT034H.grib2 2026-05-06 18:22 1.2M
20260506T12Z_MSC_CAPS_SpecificHumidity_IsbL-0500_RLatLon0.03_PT034H.grib2 2026-05-06 18:22 1.1M
20260506T12Z_MSC_CAPS_SpecificHumidity_IsbL-0550_RLatLon0.03_PT034H.grib2 2026-05-06 18:22 1.3M
20260506T12Z_MSC_CAPS_SpecificHumidity_IsbL-0600_RLatLon0.03_PT034H.grib2 2026-05-06 18:22 1.4M
20260506T12Z_MSC_CAPS_SpecificHumidity_IsbL-0650_RLatLon0.03_PT034H.grib2 2026-05-06 18:22 1.6M
20260506T12Z_MSC_CAPS_SpecificHumidity_IsbL-0700_RLatLon0.03_PT034H.grib2 2026-05-06 18:22 1.4M
20260506T12Z_MSC_CAPS_SpecificHumidity_IsbL-0750_RLatLon0.03_PT034H.grib2 2026-05-06 18:22 1.5M
20260506T12Z_MSC_CAPS_SpecificHumidity_IsbL-0800_RLatLon0.03_PT034H.grib2 2026-05-06 18:22 1.7M
20260506T12Z_MSC_CAPS_SpecificHumidity_IsbL-0850_RLatLon0.03_PT034H.grib2 2026-05-06 18:22 1.8M
20260506T12Z_MSC_CAPS_SpecificHumidity_IsbL-0875_RLatLon0.03_PT034H.grib2 2026-05-06 18:22 1.9M
20260506T12Z_MSC_CAPS_SpecificHumidity_IsbL-0900_RLatLon0.03_PT034H.grib2 2026-05-06 18:22 1.6M
20260506T12Z_MSC_CAPS_SpecificHumidity_IsbL-0925_RLatLon0.03_PT034H.grib2 2026-05-06 18:22 1.6M
20260506T12Z_MSC_CAPS_SpecificHumidity_IsbL-0950_RLatLon0.03_PT034H.grib2 2026-05-06 18:22 1.7M
20260506T12Z_MSC_CAPS_SpecificHumidity_IsbL-0970_RLatLon0.03_PT034H.grib2 2026-05-06 18:22 1.7M
20260506T12Z_MSC_CAPS_SpecificHumidity_IsbL-0985_RLatLon0.03_PT034H.grib2 2026-05-06 18:22 1.8M
20260506T12Z_MSC_CAPS_SpecificHumidity_IsbL-1000_RLatLon0.03_PT034H.grib2 2026-05-06 18:22 1.8M
20260506T12Z_MSC_CAPS_SpecificHumidity_IsbL-1015_RLatLon0.03_PT034H.grib2 2026-05-06 18:22 1.8M
20260506T12Z_MSC_CAPS_SpecificHumidity_Sfc_RLatLon0.03_PT034H.grib2 2026-05-06 18:22 2.1M
20260506T12Z_MSC_CAPS_StormRelativeHelicity_Sfc_RLatLon0.03_PT034H.grib2 2026-05-06 18:22 3.1M
20260506T12Z_MSC_CAPS_Thickness_IsbL-1000to0500_RLatLon0.03_PT034H.grib2 2026-05-06 18:22 411K
20260506T12Z_MSC_CAPS_TotalCloudCover_Sfc_RLatLon0.03_PT034H.grib2 2026-05-06 18:22 3.8M
20260506T12Z_MSC_CAPS_TurboclineDepth_Sfc_RLatLon0.03_PT034H.nc 2026-05-06 18:13 16M
20260506T12Z_MSC_CAPS_UpwardLongwaveRadiationFlux_NTAtm_RLatLon0.03_PT034H.grib2 2026-05-06 18:22 3.1M
20260506T12Z_MSC_CAPS_UpwardShortwaveRadiationFlux_NTAtm_RLatLon0.03_PT034H.grib2 2026-05-06 18:22 2.5M
20260506T12Z_MSC_CAPS_VerticalVelocity_IsbL-0250_RLatLon0.03_PT034H.grib2 2026-05-06 18:22 1.2M
20260506T12Z_MSC_CAPS_VerticalVelocity_IsbL-0500_RLatLon0.03_PT034H.grib2 2026-05-06 18:22 1.0M
20260506T12Z_MSC_CAPS_VerticalVelocity_IsbL-0700_RLatLon0.03_PT034H.grib2 2026-05-06 18:22 1.2M
20260506T12Z_MSC_CAPS_VerticalVelocity_IsbL-0850_RLatLon0.03_PT034H.grib2 2026-05-06 18:22 1.4M
20260506T12Z_MSC_CAPS_VerticalVelocity_IsbL-1000_RLatLon0.03_PT034H.grib2 2026-05-06 18:22 1.3M
20260506T12Z_MSC_CAPS_WindDir_AGL-10m_RLatLon0.03_PT034H.grib2 2026-05-06 18:22 2.5M
20260506T12Z_MSC_CAPS_WindDir_AGL-120m_RLatLon0.03_PT034H.grib2 2026-05-06 18:22 1.3M
20260506T12Z_MSC_CAPS_WindDir_AGL-40m_RLatLon0.03_PT034H.grib2 2026-05-06 18:22 1.4M
20260506T12Z_MSC_CAPS_WindDir_AGL-80m_RLatLon0.03_PT034H.grib2 2026-05-06 18:22 1.4M
20260506T12Z_MSC_CAPS_WindDir_IsbL-0050_RLatLon0.03_PT034H.grib2 2026-05-06 18:22 1.1M
20260506T12Z_MSC_CAPS_WindDir_IsbL-0100_RLatLon0.03_PT034H.grib2 2026-05-06 18:22 1.0M
20260506T12Z_MSC_CAPS_WindDir_IsbL-0150_RLatLon0.03_PT034H.grib2 2026-05-06 18:22 1.1M
20260506T12Z_MSC_CAPS_WindDir_IsbL-0175_RLatLon0.03_PT034H.grib2 2026-05-06 18:22 1.1M
20260506T12Z_MSC_CAPS_WindDir_IsbL-0200_RLatLon0.03_PT034H.grib2 2026-05-06 18:22 1.1M
20260506T12Z_MSC_CAPS_WindDir_IsbL-0225_RLatLon0.03_PT034H.grib2 2026-05-06 18:22 1.1M
20260506T12Z_MSC_CAPS_WindDir_IsbL-0250_RLatLon0.03_PT034H.grib2 2026-05-06 18:22 1.1M
20260506T12Z_MSC_CAPS_WindDir_IsbL-0275_RLatLon0.03_PT034H.grib2 2026-05-06 18:22 1.1M
20260506T12Z_MSC_CAPS_WindDir_IsbL-0300_RLatLon0.03_PT034H.grib2 2026-05-06 18:22 1.1M
20260506T12Z_MSC_CAPS_WindDir_IsbL-0350_RLatLon0.03_PT034H.grib2 2026-05-06 18:22 1.1M
20260506T12Z_MSC_CAPS_WindDir_IsbL-0400_RLatLon0.03_PT034H.grib2 2026-05-06 18:22 1.2M
20260506T12Z_MSC_CAPS_WindDir_IsbL-0450_RLatLon0.03_PT034H.grib2 2026-05-06 18:22 1.2M
20260506T12Z_MSC_CAPS_WindDir_IsbL-0500_RLatLon0.03_PT034H.grib2 2026-05-06 18:22 1.3M
20260506T12Z_MSC_CAPS_WindDir_IsbL-0550_RLatLon0.03_PT034H.grib2 2026-05-06 18:22 1.2M
20260506T12Z_MSC_CAPS_WindDir_IsbL-0600_RLatLon0.03_PT034H.grib2 2026-05-06 18:22 1.3M
20260506T12Z_MSC_CAPS_WindDir_IsbL-0650_RLatLon0.03_PT034H.grib2 2026-05-06 18:22 1.4M
20260506T12Z_MSC_CAPS_WindDir_IsbL-0700_RLatLon0.03_PT034H.grib2 2026-05-06 18:22 1.5M
20260506T12Z_MSC_CAPS_WindDir_IsbL-0750_RLatLon0.03_PT034H.grib2 2026-05-06 18:22 1.6M
20260506T12Z_MSC_CAPS_WindDir_IsbL-0800_RLatLon0.03_PT034H.grib2 2026-05-06 18:22 1.8M
20260506T12Z_MSC_CAPS_WindDir_IsbL-0850_RLatLon0.03_PT034H.grib2 2026-05-06 18:22 1.9M
20260506T12Z_MSC_CAPS_WindDir_IsbL-0875_RLatLon0.03_PT034H.grib2 2026-05-06 18:22 2.0M
20260506T12Z_MSC_CAPS_WindDir_IsbL-0900_RLatLon0.03_PT034H.grib2 2026-05-06 18:22 2.0M
20260506T12Z_MSC_CAPS_WindDir_IsbL-0925_RLatLon0.03_PT034H.grib2 2026-05-06 18:22 2.1M
20260506T12Z_MSC_CAPS_WindDir_IsbL-0950_RLatLon0.03_PT034H.grib2 2026-05-06 18:22 2.1M
20260506T12Z_MSC_CAPS_WindDir_IsbL-0970_RLatLon0.03_PT034H.grib2 2026-05-06 18:22 2.2M
20260506T12Z_MSC_CAPS_WindDir_IsbL-0985_RLatLon0.03_PT034H.grib2 2026-05-06 18:22 2.3M
20260506T12Z_MSC_CAPS_WindDir_IsbL-1000_RLatLon0.03_PT034H.grib2 2026-05-06 18:22 2.4M
20260506T12Z_MSC_CAPS_WindDir_IsbL-1015_RLatLon0.03_PT034H.grib2 2026-05-06 18:22 2.4M
20260506T12Z_MSC_CAPS_WindGust-Max_AGL-10m_RLatLon0.03_PT034H.grib2 2026-05-06 18:22 2.5M
20260506T12Z_MSC_CAPS_WindGust-Min_AGL-10m_RLatLon0.03_PT034H.grib2 2026-05-06 18:22 2.4M
20260506T12Z_MSC_CAPS_WindGust_AGL-10m_RLatLon0.03_PT034H.grib2 2026-05-06 18:22 2.5M
20260506T12Z_MSC_CAPS_WindSpeed_AGL-10m_RLatLon0.03_PT034H.grib2 2026-05-06 18:22 2.1M
20260506T12Z_MSC_CAPS_WindSpeed_AGL-120m_RLatLon0.03_PT034H.grib2 2026-05-06 18:22 1.1M
20260506T12Z_MSC_CAPS_WindSpeed_AGL-40m_RLatLon0.03_PT034H.grib2 2026-05-06 18:22 1.2M
20260506T12Z_MSC_CAPS_WindSpeed_AGL-80m_RLatLon0.03_PT034H.grib2 2026-05-06 18:22 1.1M
20260506T12Z_MSC_CAPS_WindSpeed_IsbL-0050_RLatLon0.03_PT034H.grib2 2026-05-06 18:22 946K
20260506T12Z_MSC_CAPS_WindSpeed_IsbL-0100_RLatLon0.03_PT034H.grib2 2026-05-06 18:22 1.1M
20260506T12Z_MSC_CAPS_WindSpeed_IsbL-0150_RLatLon0.03_PT034H.grib2 2026-05-06 18:22 1.0M
20260506T12Z_MSC_CAPS_WindSpeed_IsbL-0175_RLatLon0.03_PT034H.grib2 2026-05-06 18:22 1.1M
20260506T12Z_MSC_CAPS_WindSpeed_IsbL-0200_RLatLon0.03_PT034H.grib2 2026-05-06 18:22 879K
20260506T12Z_MSC_CAPS_WindSpeed_IsbL-0225_RLatLon0.03_PT034H.grib2 2026-05-06 18:22 1.0M
20260506T12Z_MSC_CAPS_WindSpeed_IsbL-0250_RLatLon0.03_PT034H.grib2 2026-05-06 18:22 1.0M
20260506T12Z_MSC_CAPS_WindSpeed_IsbL-0275_RLatLon0.03_PT034H.grib2 2026-05-06 18:22 1.0M
20260506T12Z_MSC_CAPS_WindSpeed_IsbL-0300_RLatLon0.03_PT034H.grib2 2026-05-06 18:22 1.0M
20260506T12Z_MSC_CAPS_WindSpeed_IsbL-0350_RLatLon0.03_PT034H.grib2 2026-05-06 18:22 1.0M
20260506T12Z_MSC_CAPS_WindSpeed_IsbL-0400_RLatLon0.03_PT034H.grib2 2026-05-06 18:22 1.3M
20260506T12Z_MSC_CAPS_WindSpeed_IsbL-0450_RLatLon0.03_PT034H.grib2 2026-05-06 18:22 1.3M
20260506T12Z_MSC_CAPS_WindSpeed_IsbL-0500_RLatLon0.03_PT034H.grib2 2026-05-06 18:22 1.5M
20260506T12Z_MSC_CAPS_WindSpeed_IsbL-0550_RLatLon0.03_PT034H.grib2 2026-05-06 18:22 1.4M
20260506T12Z_MSC_CAPS_WindSpeed_IsbL-0600_RLatLon0.03_PT034H.grib2 2026-05-06 18:22 1.4M
20260506T12Z_MSC_CAPS_WindSpeed_IsbL-0650_RLatLon0.03_PT034H.grib2 2026-05-06 18:22 1.4M
20260506T12Z_MSC_CAPS_WindSpeed_IsbL-0700_RLatLon0.03_PT034H.grib2 2026-05-06 18:22 1.5M
20260506T12Z_MSC_CAPS_WindSpeed_IsbL-0750_RLatLon0.03_PT034H.grib2 2026-05-06 18:22 1.6M
20260506T12Z_MSC_CAPS_WindSpeed_IsbL-0800_RLatLon0.03_PT034H.grib2 2026-05-06 18:22 1.7M
20260506T12Z_MSC_CAPS_WindSpeed_IsbL-0850_RLatLon0.03_PT034H.grib2 2026-05-06 18:22 1.7M
20260506T12Z_MSC_CAPS_WindSpeed_IsbL-0875_RLatLon0.03_PT034H.grib2 2026-05-06 18:22 1.8M
20260506T12Z_MSC_CAPS_WindSpeed_IsbL-0900_RLatLon0.03_PT034H.grib2 2026-05-06 18:22 1.8M
20260506T12Z_MSC_CAPS_WindSpeed_IsbL-0925_RLatLon0.03_PT034H.grib2 2026-05-06 18:22 1.8M
20260506T12Z_MSC_CAPS_WindSpeed_IsbL-0950_RLatLon0.03_PT034H.grib2 2026-05-06 18:22 1.9M
20260506T12Z_MSC_CAPS_WindSpeed_IsbL-0970_RLatLon0.03_PT034H.grib2 2026-05-06 18:22 2.0M
20260506T12Z_MSC_CAPS_WindSpeed_IsbL-0985_RLatLon0.03_PT034H.grib2 2026-05-06 18:22 2.0M
20260506T12Z_MSC_CAPS_WindSpeed_IsbL-1000_RLatLon0.03_PT034H.grib2 2026-05-06 18:22 2.0M
20260506T12Z_MSC_CAPS_WindSpeed_IsbL-1015_RLatLon0.03_PT034H.grib2 2026-05-06 18:22 2.1M
20260506T12Z_MSC_CAPS_WindU_AGL-10m_RLatLon0.03_PT034H.grib2 2026-05-06 18:22 2.0M
20260506T12Z_MSC_CAPS_WindU_AGL-120m_RLatLon0.03_PT034H.grib2 2026-05-06 18:22 1.2M
20260506T12Z_MSC_CAPS_WindU_AGL-40m_RLatLon0.03_PT034H.grib2 2026-05-06 18:22 1.2M
20260506T12Z_MSC_CAPS_WindU_AGL-80m_RLatLon0.03_PT034H.grib2 2026-05-06 18:22 1.2M
20260506T12Z_MSC_CAPS_WindU_IsbL-0050_RLatLon0.03_PT034H.grib2 2026-05-06 18:22 937K
20260506T12Z_MSC_CAPS_WindU_IsbL-0100_RLatLon0.03_PT034H.grib2 2026-05-06 18:22 785K
20260506T12Z_MSC_CAPS_WindU_IsbL-0150_RLatLon0.03_PT034H.grib2 2026-05-06 18:22 922K
20260506T12Z_MSC_CAPS_WindU_IsbL-0175_RLatLon0.03_PT034H.grib2 2026-05-06 18:22 734K
20260506T12Z_MSC_CAPS_WindU_IsbL-0200_RLatLon0.03_PT034H.grib2 2026-05-06 18:22 755K
20260506T12Z_MSC_CAPS_WindU_IsbL-0225_RLatLon0.03_PT034H.grib2 2026-05-06 18:22 899K
20260506T12Z_MSC_CAPS_WindU_IsbL-0250_RLatLon0.03_PT034H.grib2 2026-05-06 18:22 917K
20260506T12Z_MSC_CAPS_WindU_IsbL-0275_RLatLon0.03_PT034H.grib2 2026-05-06 18:22 920K
20260506T12Z_MSC_CAPS_WindU_IsbL-0300_RLatLon0.03_PT034H.grib2 2026-05-06 18:22 718K
20260506T12Z_MSC_CAPS_WindU_IsbL-0350_RLatLon0.03_PT034H.grib2 2026-05-06 18:22 942K
20260506T12Z_MSC_CAPS_WindU_IsbL-0400_RLatLon0.03_PT034H.grib2 2026-05-06 18:22 953K
20260506T12Z_MSC_CAPS_WindU_IsbL-0450_RLatLon0.03_PT034H.grib2 2026-05-06 18:22 973K
20260506T12Z_MSC_CAPS_WindU_IsbL-0500_RLatLon0.03_PT034H.grib2 2026-05-06 18:22 1.0M
20260506T12Z_MSC_CAPS_WindU_IsbL-0550_RLatLon0.03_PT034H.grib2 2026-05-06 18:22 917K
20260506T12Z_MSC_CAPS_WindU_IsbL-0600_RLatLon0.03_PT034H.grib2 2026-05-06 18:22 944K
20260506T12Z_MSC_CAPS_WindU_IsbL-0650_RLatLon0.03_PT034H.grib2 2026-05-06 18:22 1.2M
20260506T12Z_MSC_CAPS_WindU_IsbL-0700_RLatLon0.03_PT034H.grib2 2026-05-06 18:22 1.3M
20260506T12Z_MSC_CAPS_WindU_IsbL-0750_RLatLon0.03_PT034H.grib2 2026-05-06 18:22 1.4M
20260506T12Z_MSC_CAPS_WindU_IsbL-0800_RLatLon0.03_PT034H.grib2 2026-05-06 18:22 1.4M
20260506T12Z_MSC_CAPS_WindU_IsbL-0850_RLatLon0.03_PT034H.grib2 2026-05-06 18:22 1.5M
20260506T12Z_MSC_CAPS_WindU_IsbL-0875_RLatLon0.03_PT034H.grib2 2026-05-06 18:22 1.2M
20260506T12Z_MSC_CAPS_WindU_IsbL-0900_RLatLon0.03_PT034H.grib2 2026-05-06 18:22 1.3M
20260506T12Z_MSC_CAPS_WindU_IsbL-0925_RLatLon0.03_PT034H.grib2 2026-05-06 18:22 1.3M
20260506T12Z_MSC_CAPS_WindU_IsbL-0950_RLatLon0.03_PT034H.grib2 2026-05-06 18:22 1.4M
20260506T12Z_MSC_CAPS_WindU_IsbL-0970_RLatLon0.03_PT034H.grib2 2026-05-06 18:22 1.4M
20260506T12Z_MSC_CAPS_WindU_IsbL-0985_RLatLon0.03_PT034H.grib2 2026-05-06 18:22 1.8M
20260506T12Z_MSC_CAPS_WindU_IsbL-1000_RLatLon0.03_PT034H.grib2 2026-05-06 18:22 1.8M
20260506T12Z_MSC_CAPS_WindU_IsbL-1015_RLatLon0.03_PT034H.grib2 2026-05-06 18:22 2.0M
20260506T12Z_MSC_CAPS_WindV_AGL-10m_RLatLon0.03_PT034H.grib2 2026-05-06 18:22 1.9M
20260506T12Z_MSC_CAPS_WindV_AGL-120m_RLatLon0.03_PT034H.grib2 2026-05-06 18:22 1.1M
20260506T12Z_MSC_CAPS_WindV_AGL-40m_RLatLon0.03_PT034H.grib2 2026-05-06 18:22 1.2M
20260506T12Z_MSC_CAPS_WindV_AGL-80m_RLatLon0.03_PT034H.grib2 2026-05-06 18:22 1.1M
20260506T12Z_MSC_CAPS_WindV_IsbL-0050_RLatLon0.03_PT034H.grib2 2026-05-06 18:22 764K
20260506T12Z_MSC_CAPS_WindV_IsbL-0100_RLatLon0.03_PT034H.grib2 2026-05-06 18:22 781K
20260506T12Z_MSC_CAPS_WindV_IsbL-0150_RLatLon0.03_PT034H.grib2 2026-05-06 18:22 910K
20260506T12Z_MSC_CAPS_WindV_IsbL-0175_RLatLon0.03_PT034H.grib2 2026-05-06 18:22 846K
20260506T12Z_MSC_CAPS_WindV_IsbL-0200_RLatLon0.03_PT034H.grib2 2026-05-06 18:22 870K
20260506T12Z_MSC_CAPS_WindV_IsbL-0225_RLatLon0.03_PT034H.grib2 2026-05-06 18:22 682K
20260506T12Z_MSC_CAPS_WindV_IsbL-0250_RLatLon0.03_PT034H.grib2 2026-05-06 18:22 697K
20260506T12Z_MSC_CAPS_WindV_IsbL-0275_RLatLon0.03_PT034H.grib2 2026-05-06 18:22 704K
20260506T12Z_MSC_CAPS_WindV_IsbL-0300_RLatLon0.03_PT034H.grib2 2026-05-06 18:22 710K
20260506T12Z_MSC_CAPS_WindV_IsbL-0350_RLatLon0.03_PT034H.grib2 2026-05-06 18:22 936K
20260506T12Z_MSC_CAPS_WindV_IsbL-0400_RLatLon0.03_PT034H.grib2 2026-05-06 18:22 948K
20260506T12Z_MSC_CAPS_WindV_IsbL-0450_RLatLon0.03_PT034H.grib2 2026-05-06 18:22 966K
20260506T12Z_MSC_CAPS_WindV_IsbL-0500_RLatLon0.03_PT034H.grib2 2026-05-06 18:22 1.0M
20260506T12Z_MSC_CAPS_WindV_IsbL-0550_RLatLon0.03_PT034H.grib2 2026-05-06 18:22 902K
20260506T12Z_MSC_CAPS_WindV_IsbL-0600_RLatLon0.03_PT034H.grib2 2026-05-06 18:22 927K
20260506T12Z_MSC_CAPS_WindV_IsbL-0650_RLatLon0.03_PT034H.grib2 2026-05-06 18:22 958K
20260506T12Z_MSC_CAPS_WindV_IsbL-0700_RLatLon0.03_PT034H.grib2 2026-05-06 18:22 1.0M
20260506T12Z_MSC_CAPS_WindV_IsbL-0750_RLatLon0.03_PT034H.grib2 2026-05-06 18:22 1.1M
20260506T12Z_MSC_CAPS_WindV_IsbL-0800_RLatLon0.03_PT034H.grib2 2026-05-06 18:22 1.1M
20260506T12Z_MSC_CAPS_WindV_IsbL-0850_RLatLon0.03_PT034H.grib2 2026-05-06 18:22 1.2M
20260506T12Z_MSC_CAPS_WindV_IsbL-0875_RLatLon0.03_PT034H.grib2 2026-05-06 18:22 1.2M
20260506T12Z_MSC_CAPS_WindV_IsbL-0900_RLatLon0.03_PT034H.grib2 2026-05-06 18:22 1.3M
20260506T12Z_MSC_CAPS_WindV_IsbL-0925_RLatLon0.03_PT034H.grib2 2026-05-06 18:22 1.7M
20260506T12Z_MSC_CAPS_WindV_IsbL-0950_RLatLon0.03_PT034H.grib2 2026-05-06 18:22 1.7M
20260506T12Z_MSC_CAPS_WindV_IsbL-0970_RLatLon0.03_PT034H.grib2 2026-05-06 18:22 1.7M
20260506T12Z_MSC_CAPS_WindV_IsbL-0985_RLatLon0.03_PT034H.grib2 2026-05-06 18:22 1.9M
20260506T12Z_MSC_CAPS_WindV_IsbL-1000_RLatLon0.03_PT034H.grib2 2026-05-06 18:22 2.0M
20260506T12Z_MSC_CAPS_WindV_IsbL-1015_RLatLon0.03_PT034H.grib2 2026-05-06 18:22 1.9M